Project,Study,Ord_Occ,Event_Num,Cast_ID,Date_Time_UTC,Date_Time_PST,Lat_Dec,Lon_Dec,Sta_ID,Line,Sta,Depth,Pressure,PrQ,Temp1,Temp1Q,Temp2,Temp2Q,TempAve,Salt1,Salt1Q,Salt1_Corr,Salt2,Salt2Q,Salt2_Corr,SaltAve_Corr,Ox1,Ox1Q,Ox1_CruiseCorr,Ox1_StaCorr,Ox2,Ox2Q,Ox2_CruiseCorr,Ox2_StaCorr,OxAve_StaCorr,Ox1uM,Ox1uM_CruiseCorr,Ox1uM_StaCorr,Ox2uM,Ox2uM_CruiseCorr,Ox2uM_StaCorr,OxAveuM_StaCorr,FluorV,FluorQ,EstChl_CruiseCorr,EstChl_StaCorr,ISUSV,ISUSQ,EstNO3_CruiseCorr,EstNO3_StaCorr,SigThetaTS1,SigThetaTS1Q,SigThetaTS2,SigThetaTS2Q,BAT,XMiss,TransQ,pH,pHQ,SPAR,SPARQ,PAR,PARQ,PoT1,PoT2,DynHt,SVA,OxSat1,OxSat2,BTL_Depth,BTL_Temp,SaltB,OxB,OxBuM,Chl-a,Phaeo,NO3,NO2,NH4,PO4,SIL
CalCOFI,2101RL,066,,2101_066u,01-Feb-2021 10:40:43,01-Feb-2021 02:40:43,33.39230,-124.31649,076.7 100.0,076.7,100.0,517.000,521.344,,5.9576,,5.9548,,5.9562,34.2652,,34.2710,34.2618,,34.2638,34.2674,0.3424,,0.3583,0.3763,0.3472,,0.3668,0.3917,0.3840,14.892,15.8491,28.5223,15.097,17.0125,28.9786,28.7505,0.0326,,,, ,, , ,26.9831,,26.9807,,0.7271,83.3785,,,,1.8474E+00,,1.0000E-12,,5.9123,5.9096,0.9937,113.635,4.928,4.995,,,,,,,,,,,,
CalCOFI,2101RL,066,,2101_066u,01-Feb-2021 10:40:45,01-Feb-2021 02:40:45,33.39230,-124.31648,076.7 100.0,076.7,100.0,516.000,520.334,,5.9480,,5.9425,,5.9453,34.2618,,34.2676,34.2574,,34.2594,34.2635,0.3449,,0.3609,0.3790,0.3503,,0.3701,0.3950,0.3870,15.001,15.9632,28.6155,15.235,17.1338,29.0984,28.8570,0.0330,,,, ,, , ,26.9816,,26.9787,,0.7279,83.3636,,,,1.8474E+00,,1.0000E-12,,5.9028,5.8974,0.9937,113.749,4.963,5.039,516,,34.2584,0.354,15.46,,,,,,,
CalCOFI,2101RL,066,,2101_066u,01-Feb-2021 10:40:46,01-Feb-2021 02:40:46,33.39230,-124.31648,076.7 100.0,076.7,100.0,515.000,519.325,,5.9423,,5.9399,,5.9411,34.2597,,34.2655,34.2567,,34.2587,34.2621,0.3430,,0.3589,0.3770,0.3464,,0.3659,0.3909,0.3840,14.918,15.8764,28.5445,15.067,17.0415,28.9525,28.7485,0.0333,,,, ,, , ,26.9806,,26.9785,,0.7279,83.3633,,,,1.8474E+00,,1.0000E-12,,5.8973,5.8949,0.9937,113.819,4.934,4.983,,,,,,,,,,,,
CalCOFI,2101RL,066,,2101_066u,01-Feb-2021 10:40:52,01-Feb-2021 02:40:52,33.39233,-124.31647,076.7 100.0,076.7,100.0,514.000,518.315,,5.9415,,5.9416,,5.9416,34.2593,,34.2651,34.2573,,34.2593,34.2622,0.3470,,0.3631,0.3812,0.3475,,0.3671,0.3920,0.3866,15.091,16.0575,28.6925,15.110,17.2338,28.9899,28.8412,0.0321,,,, ,, , ,26.9803,,26.9787,,0.7270,83.3804,,,,1.8474E+00,,1.0000E-12,,5.8966,5.8967,0.9954,113.831,4.992,4.998,,,,,,,,,,,,
CalCOFI,2101RL,066,,2101_066u,01-Feb-2021 10:40:58,01-Feb-2021 02:40:58,33.39234,-124.31644,076.7 100.0,076.7,100.0,513.000,517.305,,5.9416,,5.9416,,5.9416,34.2582,,34.2640,34.2561,,34.2581,34.2611,0.3515,,0.3678,0.3859,0.3533,,0.3732,0.3982,0.3921,15.286,16.2616,28.8593,15.363,17.4507,29.2096,29.0345,0.0331,,,, ,, , ,26.9795,,26.9778,,0.7259,83.4036,,,,1.8474E+00,,1.0000E-12,,5.8968,5.8968,0.9971,113.900,5.056,5.081,,,,,,,,,,,,
CalCOFI,2101RL,066,,2101_066u,01-Feb-2021 10:40:59,01-Feb-2021 02:40:59,33.39234,-124.31644,076.7 100.0,076.7,100.0,512.000,516.296,,5.9422,,5.9418,,5.9420,34.2575,,34.2633,34.2558,,34.2578,34.2606,0.3507,,0.3669,0.3851,0.3564,,0.3765,0.4016,0.3934,15.250,16.2239,28.8285,15.497,17.4106,29.3260,29.0773,0.0338,,,, ,, , ,26.9788,,26.9775,,0.7272,83.3763,,,,1.8474E+00,,1.0000E-12,,5.8974,5.8971,0.9969,113.946,5.044,5.126,,,,,,,,,,,,
CalCOFI,2101RL,066,,2101_066u,01-Feb-2021 10:41:00,01-Feb-2021 02:41:00,33.39234,-124.31643,076.7 100.0,076.7,100.0,511.000,515.286,,5.9445,,5.9442,,5.9444,34.2570,,34.2628,34.2548,,34.2568,34.2598,0.3502,,0.3664,0.3846,0.3569,,0.3771,0.4021,0.3934,15.230,16.2030,28.8114,15.520,17.3884,29.3459,29.0787,0.0326,,,, ,, , ,26.9781,,26.9764,,0.7269,83.3823,,,,1.8474E+00,,1.0000E-12,,5.8999,5.8996,0.9969,114.002,5.038,5.134,,,,,,,,,,,,
CalCOFI,2101RL,066,,2101_066u,01-Feb-2021 10:41:01,01-Feb-2021 02:41:01,33.39234,-124.31640,076.7 100.0,076.7,100.0,510.000,514.277,,5.9426,,5.9365,,5.9396,34.2561,,34.2619,34.2516,,34.2536,34.2578,0.3542,,0.3706,0.3888,0.3491,,0.3688,0.3937,0.3913,15.403,16.3841,28.9593,15.183,17.5808,29.0533,29.0063,0.0326,,,, ,, , ,26.9776,,26.9749,,0.7269,83.3823,,,,1.8474E+00,,1.0000E-12,,5.8981,5.8920,0.9969,114.034,5.095,5.021,,,,,,,,,,,,
CalCOFI,2101RL,066,,2101_066u,01-Feb-2021 10:41:03,01-Feb-2021 02:41:03,33.39235,-124.31640,076.7 100.0,076.7,100.0,509.000,513.267,,5.9399,,5.9387,,5.9393,34.2519,,34.2577,34.2501,,34.2521,34.2549,0.3628,,0.3796,0.3978,0.3609,,0.3813,0.4064,0.4021,15.778,16.7766,29.2801,15.693,17.9978,29.4962,29.3882,0.0329,,,, ,, , ,26.9747,,26.9733,,0.7260,83.4011,,,,1.8474E+00,,1.0000E-12,,5.8955,5.8943,0.9970,114.292,5.218,5.190,,,,,,,,,,,,
CalCOFI,2101RL,066,,2101_066u,01-Feb-2021 10:41:07,01-Feb-2021 02:41:07,33.39238,-124.31638,076.7 100.0,076.7,100.0,508.000,512.257,,5.9458,,5.9449,,5.9454,34.2494,,34.2552,34.2481,,34.2501,34.2527,0.3667,,0.3837,0.4020,0.3586,,0.3789,0.4039,0.4030,15.948,16.9546,29.4255,15.595,18.1868,29.4111,29.4183,0.0327,,,, ,, , ,26.9720,,26.9710,,0.7264,83.3933,,,,1.8474E+00,,1.0000E-12,,5.9014,5.9006,0.9972,114.539,5.275,5.158,,,,,,,,,,,,
CalCOFI,2101RL,066,,2101_066u,01-Feb-2021 10:41:08,01-Feb-2021 02:41:08,33.39238,-124.31638,076.7 100.0,076.7,100.0,507.000,511.248,,5.9478,,5.9475,,5.9477,34.2494,,34.2552,34.2482,,34.2502,34.2527,0.3649,,0.3818,0.4001,0.3681,,0.3890,0.4141,0.4071,15.869,16.8719,29.3579,16.007,18.0990,29.7689,29.5634,0.0334,,,, ,, , ,26.9717,,26.9707,,0.7268,83.3845,,,,1.8474E+00,,1.0000E-12,,5.9035,5.9032,0.9972,114.556,5.249,5.295,,,,,,,,,,,,
CalCOFI,2101RL,066,,2101_066u,01-Feb-2021 10:41:09,01-Feb-2021 02:41:09,33.39238,-124.31638,076.7 100.0,076.7,100.0,506.000,510.238,,5.9489,,5.9501,,5.9495,34.2494,,34.2552,34.2478,,34.2498,34.2525,0.3644,,0.3813,0.3995,0.3707,,0.3917,0.4169,0.4082,15.848,16.8499,29.3399,16.123,18.0756,29.8697,29.6048,0.0334,,,, ,, , ,26.9715,,26.9701,,0.7271,83.3782,,,,1.8474E+00,,1.0000E-12,,5.9047,5.9059,0.9972,114.557,5.242,5.334,,,,,,,,,,,,
CalCOFI,2101RL,066,,2101_066u,01-Feb-2021 10:41:10,01-Feb-2021 02:41:10,33.39238,-124.31636,076.7 100.0,076.7,100.0,505.000,509.228,,5.9491,,5.9524,,5.9508,34.2496,,34.2554,34.2477,,34.2497,34.2526,0.3643,,0.3812,0.3994,0.3633,,0.3839,0.4089,0.4042,15.840,16.8415,29.3331,15.797,18.0667,29.5865,29.4598,0.0330,,,, ,, , ,26.9717,,26.9697,,0.7272,83.3756,,,,1.8474E+00,,1.0000E-12,,5.9049,5.9082,0.9972,114.529,5.240,5.226,,,,,,,,,,,,
CalCOFI,2101RL,066,,2101_066u,01-Feb-2021 10:41:11,01-Feb-2021 02:41:11,33.39238,-124.31636,076.7 100.0,076.7,100.0,504.000,508.219,,5.9522,,5.9524,,5.9523,34.2498,,34.2556,34.2478,,34.2498,34.2527,0.3642,,0.3811,0.3993,0.3676,,0.3884,0.4135,0.4064,15.837,16.8384,29.3305,15.984,18.0634,29.7489,29.5397,0.0327,,,, ,, , ,26.9714,,26.9698,,0.7273,83.3750,,,,1.8474E+00,,1.0000E-12,,5.9081,5.9084,0.9972,114.545,5.239,5.288,,,,,,,,,,,,
CalCOFI,2101RL,066,,2101_066u,01-Feb-2021 10:41:12,01-Feb-2021 02:41:12,33.39238,-124.31636,076.7 100.0,076.7,100.0,503.000,507.209,,5.9550,,5.9548,,5.9549,34.2497,,34.2555,34.2479,,34.2499,34.2527,0.3641,,0.3810,0.3992,0.3698,,0.3908,0.4159,0.4076,15.834,16.8352,29.3280,16.080,18.0601,29.8323,29.5802,0.0332,,,, ,, , ,26.9710,,26.9695,,0.7285,83.3505,,,,1.8474E+00,,1.0000E-12,,5.9111,5.9108,0.9972,114.575,5.238,5.320,,,,,,,,,,,,
CalCOFI,2101RL,066,,2101_066u,01-Feb-2021 10:41:13,01-Feb-2021 02:41:13,33.39238,-124.31634,076.7 100.0,076.7,100.0,502.000,506.200,,5.9576,,5.9599,,5.9588,34.2499,,34.2557,34.2481,,34.2501,34.2529,0.3640,,0.3809,0.3991,0.3666,,0.3874,0.4125,0.4058,15.831,16.8321,29.3254,15.942,18.0567,29.7125,29.5190,0.0325,,,, ,, , ,26.9707,,26.9691,,0.7281,83.3586,,,,1.8474E+00,,1.0000E-12,,5.9137,5.9160,0.9972,114.585,5.238,5.275,,,,,,,,,,,,
CalCOFI,2101RL,066,,2101_066u,01-Feb-2021 10:41:14,01-Feb-2021 02:41:14,33.39238,-124.31634,076.7 100.0,076.7,100.0,501.000,505.190,,5.9601,,5.9630,,5.9616,34.2501,,34.2559,34.2484,,34.2504,34.2532,0.3640,,0.3809,0.3991,0.3662,,0.3869,0.4120,0.4056,15.828,16.8290,29.3228,15.926,18.0534,29.6986,29.5107,0.0330,,,, ,, , ,26.9706,,26.9689,,0.7274,83.3721,,,,1.8474E+00,,1.0000E-12,,5.9163,5.9192,0.9972,114.589,5.237,5.270,,,,,,,,,,,,
CalCOFI,2101RL,066,,2101_066u,01-Feb-2021 10:41:15,01-Feb-2021 02:41:15,33.39238,-124.31634,076.7 100.0,076.7,100.0,500.000,504.180,,5.9612,,5.9634,,5.9623,34.2501,,34.2559,34.2483,,34.2503,34.2531,0.3639,,0.3808,0.3990,0.3662,,0.3869,0.4120,0.4055,15.825,16.8258,29.3203,15.924,18.0501,29.6968,29.5086,0.0321,,,, ,, , ,26.9704,,26.9688,,0.7297,83.3252,,,,1.8474E+00,,1.0000E-12,,5.9175,5.9196,0.9972,114.592,5.236,5.269,,,,,,,,,,,,
CalCOFI,2101RL,066,,2101_066u,01-Feb-2021 10:41:17,01-Feb-2021 02:41:17,33.39240,-124.31634,076.7 100.0,076.7,100.0,499.000,503.171,,5.9634,,5.9634,,5.9634,34.2502,,34.2560,34.2482,,34.2502,34.2531,0.3638,,0.3807,0.3989,0.3661,,0.3868,0.4119,0.4054,15.822,16.8227,29.3177,15.922,18.0467,29.6951,29.5064,0.0327,,,, ,, , ,26.9703,,26.9687,,0.7264,83.3930,,,,1.8474E+00,,1.0000E-12,,5.9197,5.9197,0.9972,114.596,5.236,5.269,,,,,,,,,,,,
CalCOFI,2101RL,066,,2101_066u,01-Feb-2021 10:41:19,01-Feb-2021 02:41:19,33.39240,-124.31633,076.7 100.0,076.7,100.0,498.000,502.161,,5.9664,,5.9659,,5.9662,34.2502,,34.2560,34.2484,,34.2504,34.2532,0.3682,,0.3853,0.4035,0.3661,,0.3868,0.4119,0.4077,16.013,17.0226,29.4811,15.919,18.2591,29.6925,29.5868,0.0330,,,, ,, , ,26.9699,,26.9685,,0.7259,83.4041,,,,1.8474E+00,,1.0000E-12,,5.9228,5.9224,0.9972,114.624,5.299,5.268,,,,,,,,,,,,
CalCOFI,2101RL,066,,2101_066u,01-Feb-2021 10:41:21,01-Feb-2021 02:41:21,33.39240,-124.31632,076.7 100.0,076.7,100.0,497.000,501.152,,5.9728,,5.9716,,5.9722,34.2498,,34.2556,34.2483,,34.2503,34.2530,0.3689,,0.3860,0.4043,0.3706,,0.3916,0.4168,0.4106,16.041,17.0519,29.5050,16.115,18.2903,29.8627,29.6839,0.0328,,,, ,, , ,26.9688,,26.9677,,0.7276,83.3692,,,,1.8474E+00,,1.0000E-12,,5.9293,5.9281,0.9972,114.719,5.309,5.334,,,,,,,,,,,,
CalCOFI,2101RL,066,,2101_066u,01-Feb-2021 10:41:22,01-Feb-2021 02:41:22,33.39240,-124.31632,076.7 100.0,076.7,100.0,496.000,500.142,,5.9759,,5.9782,,5.9771,34.2492,,34.2550,34.2471,,34.2491,34.2521,0.3719,,0.3891,0.4074,0.3751,,0.3964,0.4216,0.4145,16.175,17.1922,29.6196,16.314,18.4393,30.0355,29.8276,0.0326,,,, ,, , ,26.9679,,26.9659,,0.7269,83.3825,,,,1.8474E+00,,1.0000E-12,,5.9325,5.9348,0.9972,114.794,5.354,5.400,,,,,,,,,,,,
CalCOFI,2101RL,066,,2101_066u,01-Feb-2021 10:41:23,01-Feb-2021 02:41:23,33.39240,-124.31632,076.7 100.0,076.7,100.0,495.000,499.133,,5.9825,,5.9859,,5.9842,34.2474,,34.2532,34.2448,,34.2468,34.2500,0.3773,,0.3948,0.4131,0.3781,,0.3996,0.4248,0.4190,16.406,17.4340,29.8172,16.441,18.6961,30.1459,29.9816,0.0329,,,, ,, , ,26.9656,,26.9632,,0.7271,83.3785,,,,1.8474E+00,,1.0000E-12,,5.9392,5.9426,0.9972,115.004,5.431,5.443,,,,,,,,,,,,
CalCOFI,2101RL,066,,2101_066u,01-Feb-2021 10:41:23,01-Feb-2021 02:41:23,33.39240,-124.31632,076.7 100.0,076.7,100.0,494.000,498.123,,5.9857,,5.9886,,5.9872,34.2463,,34.2521,34.2438,,34.2458,34.2490,0.3738,,0.3911,0.4094,0.3731,,0.3943,0.4194,0.4144,16.256,17.2770,29.6889,16.228,18.5293,29.9609,29.8249,0.0321,,,, ,, , ,26.9643,,26.9620,,0.7272,83.3756,,,,1.8474E+00,,1.0000E-12,,5.9424,5.9454,0.9972,115.109,5.382,5.373,,,,,,,,,,,,
CalCOFI,2101RL,066,,2101_066u,01-Feb-2021 10:41:24,01-Feb-2021 02:41:24,33.39240,-124.31632,076.7 100.0,076.7,100.0,493.000,497.114,,5.9857,,5.9890,,5.9874,34.2463,,34.2521,34.2438,,34.2458,34.2490,0.3791,,0.3967,0.4150,0.3736,,0.3948,0.4200,0.4175,16.485,17.5167,29.8848,16.246,18.7840,29.9765,29.9307,0.0325,,,, ,, , ,26.9643,,26.9619,,0.7271,83.3795,,,,1.8474E+00,,1.0000E-12,,5.9426,5.9458,0.9972,115.101,5.458,5.379,,,,,,,,,,,,
CalCOFI,2101RL,066,,2101_066u,01-Feb-2021 10:41:25,01-Feb-2021 02:41:25,33.39240,-124.31632,076.7 100.0,076.7,100.0,492.000,496.104,,5.9873,,5.9885,,5.9879,34.2459,,34.2517,34.2440,,34.2460,34.2489,0.3761,,0.3935,0.4119,0.3826,,0.4044,0.4296,0.4208,16.355,17.3806,29.7736,16.639,18.6394,30.3178,30.0457,0.0333,,,, ,, , ,26.9638,,26.9621,,0.7261,83.3989,,,,1.8474E+00,,1.0000E-12,,5.9443,5.9454,0.9972,115.139,5.415,5.509,,,,,,,,,,,,
CalCOFI,2101RL,066,,2101_066u,01-Feb-2021 10:41:27,01-Feb-2021 02:41:27,33.39240,-124.31628,076.7 100.0,076.7,100.0,491.000,495.094,,5.9901,,5.9895,,5.9898,34.2452,,34.2510,34.2437,,34.2457,34.2484,0.3790,,0.3966,0.4149,0.3797,,0.4013,0.4265,0.4207,16.479,17.5104,29.8796,16.511,18.7773,30.2066,30.0431,0.0330,,,, ,, , ,26.9629,,26.9618,,0.7269,83.3822,,,,1.8474E+00,,1.0000E-12,,5.9471,5.9465,0.9972,115.211,5.456,5.467,,,,,,,,,,,,
CalCOFI,2101RL,066,,2101_066u,01-Feb-2021 10:41:28,01-Feb-2021 02:41:28,33.39240,-124.31628,076.7 100.0,076.7,100.0,490.000,494.085,,5.9959,,5.9955,,5.9957,34.2449,,34.2507,34.2437,,34.2457,34.2482,0.3955,,0.4138,0.4323,0.3861,,0.4081,0.4333,0.4328,17.198,18.2631,30.4946,16.790,19.5769,30.4490,30.4718,0.0324,,,, ,, , ,26.9619,,26.9610,,0.7265,83.3904,,,,1.8474E+00,,1.0000E-12,,5.9529,5.9526,0.9972,115.295,5.695,5.560,,,,,,,,,,,,
CalCOFI,2101RL,066,,2101_066u,01-Feb-2021 10:41:29,01-Feb-2021 02:41:29,33.39240,-124.31628,076.7 100.0,076.7,100.0,489.000,493.075,,5.9944,,5.9964,,5.9954,34.2413,,34.2471,34.2394,,34.2414,34.2443,0.4091,,0.4281,0.4467,0.3978,,0.4205,0.4459,0.4463,17.792,18.8849,31.0026,17.298,20.2374,30.8902,30.9464,0.0327,,,, ,, , ,26.9592,,26.9575,,0.7260,83.4024,,,,1.8474E+00,,1.0000E-12,,5.9516,5.9535,0.9972,115.532,5.891,5.728,,,,,,,,,,,,
CalCOFI,2101RL,066,,2101_066u,01-Feb-2021 10:41:30,01-Feb-2021 02:41:30,33.39238,-124.31626,076.7 100.0,076.7,100.0,488.000,492.066,,5.9780,,5.9829,,5.9805,34.2328,,34.2386,34.2322,,34.2342,34.2364,0.4173,,0.4366,0.4553,0.4011,,0.4240,0.4494,0.4524,18.147,19.2565,31.3062,17.443,20.6322,31.0161,31.1612,0.0331,,,, ,, , ,26.9546,,26.9535,,0.7263,83.3944,,,,1.8474E+00,,1.0000E-12,,5.9354,5.9403,0.9972,115.934,6.006,5.774,,,,,,,,,,,,
CalCOFI,2101RL,066,,2101_066u,01-Feb-2021 10:41:31,01-Feb-2021 02:41:31,33.39238,-124.31626,076.7 100.0,076.7,100.0,487.000,491.056,,5.9652,,5.9669,,5.9661,34.2272,,34.2330,34.2256,,34.2276,34.2303,0.4213,,0.4408,0.4596,0.4131,,0.4368,0.4622,0.4609,18.322,19.4397,31.4559,17.964,20.8268,31.4686,31.4623,0.0338,,,, ,, , ,26.9517,,26.9502,,0.7266,83.3895,,,,1.8474E+00,,1.0000E-12,,5.9227,5.9244,0.9972,116.177,6.062,5.944,,,,,,,,,,,,
CalCOFI,2101RL,066,,2101_066u,01-Feb-2021 10:41:32,01-Feb-2021 02:41:32,33.39238,-124.31626,076.7 100.0,076.7,100.0,486.000,490.047,,5.9624,,5.9588,,5.9606,34.2261,,34.2319,34.2224,,34.2244,34.2282,0.4247,,0.4444,0.4631,0.4214,,0.4456,0.4711,0.4671,18.471,19.5956,31.5834,18.327,20.9925,31.7839,31.6837,0.0332,,,, ,, , ,26.9512,,26.9487,,0.7268,83.3854,,,,1.8474E+00,,1.0000E-12,,5.9199,5.9164,0.9972,116.210,6.111,6.062,,,,,,,,,,,,
CalCOFI,2101RL,066,,2101_066u,01-Feb-2021 10:41:33,01-Feb-2021 02:41:33,33.39238,-124.31626,076.7 100.0,076.7,100.0,485.000,489.037,,5.9568,,5.9576,,5.9572,34.2233,,34.2291,34.2215,,34.2235,34.2263,0.4240,,0.4437,0.4624,0.4204,,0.4445,0.4701,0.4663,18.440,19.5632,31.5568,18.281,20.9580,31.7439,31.6504,0.0325,,,, ,, , ,26.9497,,26.9481,,0.7259,83.4047,,,,1.8474E+00,,1.0000E-12,,5.9145,5.9153,0.9972,116.328,6.100,6.047,,,,,,,,,,,,
CalCOFI,2101RL,066,,2101_066u,01-Feb-2021 10:41:35,01-Feb-2021 02:41:35,33.39238,-124.31626,076.7 100.0,076.7,100.0,484.000,488.028,,5.9572,,5.9583,,5.9578,34.2230,,34.2288,34.2223,,34.2243,34.2266,0.4263,,0.4461,0.4648,0.4224,,0.4466,0.4722,0.4685,18.537,19.6647,31.6398,18.371,21.0658,31.8221,31.7310,0.0332,,,, ,, , ,26.9494,,26.9486,,0.7258,83.4059,,,,1.8474E+00,,1.0000E-12,,5.9150,5.9161,0.9972,116.345,6.132,6.077,,,,,,,,,,,,
CalCOFI,2101RL,066,,2101_066u,01-Feb-2021 10:41:36,01-Feb-2021 02:41:36,33.39236,-124.31626,076.7 100.0,076.7,100.0,483.000,487.018,,5.9602,,5.9583,,5.9593,34.2222,,34.2280,34.2205,,34.2225,34.2253,0.4316,,0.4516,0.4704,0.4280,,0.4526,0.4782,0.4743,18.769,19.9076,31.8382,18.614,21.3238,32.0331,31.9357,0.0329,,,, ,, , ,26.9483,,26.9473,,0.7266,83.3884,,,,1.8474E+00,,1.0000E-12,,5.9181,5.9162,0.9972,116.429,6.209,6.158,,,,,,,,,,,,
CalCOFI,2101RL,066,,2101_066u,01-Feb-2021 10:41:37,01-Feb-2021 02:41:37,33.39236,-124.31626,076.7 100.0,076.7,100.0,482.000,486.009,,5.9706,,5.9705,,5.9706,34.2216,,34.2274,34.2199,,34.2219,34.2247,0.4375,,0.4578,0.4766,0.4340,,0.4590,0.4846,0.4806,19.026,20.1766,32.0580,18.872,21.6096,32.2572,32.1576,0.0321,,,, ,, , ,26.9466,,26.9452,,0.7269,83.3824,,,,1.8474E+00,,1.0000E-12,,5.9285,5.9284,0.9972,116.593,6.296,6.244,,,,,,,,,,,,
CalCOFI,2101RL,066,,2101_066u,01-Feb-2021 10:41:38,01-Feb-2021 02:41:38,33.39236,-124.31626,076.7 100.0,076.7,100.0,481.000,484.999,,5.9714,,5.9730,,5.9722,34.2198,,34.2256,34.2168,,34.2188,34.2222,0.4376,,0.4579,0.4767,0.4413,,0.4667,0.4924,0.4846,19.028,20.1787,32.0598,19.194,21.6118,32.5369,32.2984,0.0323,,,, ,, , ,26.9451,,26.9424,,0.7265,83.3904,,,,1.8474E+00,,1.0000E-12,,5.9294,5.9310,0.9972,116.725,6.297,6.351,,,,,,,,,,,,
CalCOFI,2101RL,066,,2101_066u,01-Feb-2021 10:41:39,01-Feb-2021 02:41:39,33.39236,-124.31626,076.7 100.0,076.7,100.0,480.000,483.990,,5.9787,,5.9794,,5.9791,34.2201,,34.2259,34.2181,,34.2201,34.2230,0.4371,,0.4574,0.4762,0.4338,,0.4587,0.4844,0.4803,19.007,20.1567,32.0418,18.865,21.5885,32.2511,32.1465,0.0328,,,, ,, , ,26.9443,,26.9426,,0.7269,83.3823,,,,1.8474E+00,,1.0000E-12,,5.9368,5.9374,0.9972,116.792,6.291,6.243,,,,,,,,,,,,
CalCOFI,2101RL,066,,2101_066u,01-Feb-2021 10:41:40,01-Feb-2021 02:41:40,33.39236,-124.31626,076.7 100.0,076.7,100.0,479.000,482.980,,5.9911,,5.9921,,5.9916,34.2209,,34.2267,34.2189,,34.2209,34.2238,0.4373,,0.4576,0.4764,0.4302,,0.4549,0.4805,0.4785,19.016,20.1661,32.0495,18.708,21.5985,32.1148,32.0822,0.0331,,,, ,, , ,26.9434,,26.9417,,0.7266,83.3880,,,,1.8474E+00,,1.0000E-12,,5.9492,5.9502,0.9972,116.878,6.295,6.193,,,,,,,,,,,,
CalCOFI,2101RL,066,,2101_066u,01-Feb-2021 10:41:41,01-Feb-2021 02:41:41,33.39236,-124.31626,076.7 100.0,076.7,100.0,478.000,481.971,,6.0072,,6.0088,,6.0080,34.2214,,34.2272,34.2204,,34.2224,34.2248,0.4345,,0.4546,0.4735,0.4411,,0.4665,0.4922,0.4829,18.896,20.0405,31.9469,19.181,21.4651,32.5256,32.2363,0.0327,,,, ,, , ,26.9418,,26.9408,,0.7276,83.3684,,,,1.8474E+00,,1.0000E-12,,5.9653,5.9669,0.9972,117.034,6.258,6.353,,,,,,,,,,,,
CalCOFI,2101RL,066,,2101_066u,01-Feb-2021 10:41:42,01-Feb-2021 02:41:42,33.39236,-124.31625,076.7 100.0,076.7,100.0,477.000,480.961,,6.0128,,6.0198,,6.0163,34.2230,,34.2288,34.2211,,34.2231,34.2260,0.4341,,0.4542,0.4731,0.4315,,0.4563,0.4819,0.4775,18.878,20.0217,31.9315,18.764,21.4450,32.1634,32.0475,0.0325,,,, ,, , ,26.9424,,26.9400,,0.7269,83.3818,,,,1.8474E+00,,1.0000E-12,,5.9710,5.9780,0.9972,116.972,6.253,6.216,,,,,,,,,,,,
CalCOFI,2101RL,066,,2101_066u,01-Feb-2021 10:41:44,01-Feb-2021 02:41:44,33.39236,-124.31624,076.7 100.0,076.7,100.0,476.000,479.952,,6.0223,,6.0239,,6.0231,34.2243,,34.2301,34.2212,,34.2232,34.2267,0.4404,,0.4608,0.4797,0.4303,,0.4550,0.4807,0.4802,19.152,20.3085,32.1658,18.711,21.7497,32.1174,32.1416,0.0330,,,, ,, , ,26.9422,,26.9395,,0.7262,83.3965,,,,1.8474E+00,,1.0000E-12,,5.9806,5.9822,0.9972,116.988,6.345,6.199,,,,,,,,,,,,
CalCOFI,2101RL,066,,2101_066u,01-Feb-2021 10:41:45,01-Feb-2021 02:41:45,33.39236,-124.31624,076.7 100.0,076.7,100.0,475.000,478.942,,6.0405,,6.0338,,6.0372,34.2234,,34.2292,34.2218,,34.2238,34.2265,0.4451,,0.4657,0.4847,0.4430,,0.4685,0.4943,0.4895,19.355,20.5210,32.3394,19.265,21.9755,32.5986,32.4690,0.0328,,,, ,, , ,26.9391,,26.9387,,0.7268,83.3837,,,,1.8474E+00,,1.0000E-12,,5.9988,5.9921,0.9972,117.279,6.415,6.384,,,,,,,,,,,,
CalCOFI,2101RL,066,,2101_066u,01-Feb-2021 10:41:46,01-Feb-2021 02:41:46,33.39237,-124.31624,076.7 100.0,076.7,100.0,474.000,477.933,,6.0431,,6.0409,,6.0420,34.2223,,34.2281,34.2212,,34.2232,34.2257,0.4502,,0.4711,0.4900,0.4475,,0.4733,0.4991,0.4946,19.577,20.7534,32.5293,19.462,22.2223,32.7697,32.6495,0.0321,,,, ,, , ,26.9379,,26.9373,,0.7269,83.3823,,,,1.8474E+00,,1.0000E-12,,6.0015,5.9993,0.9972,117.384,6.489,6.450,,,,,,,,,,,,
CalCOFI,2101RL,066,,2101_066u,01-Feb-2021 10:41:47,01-Feb-2021 02:41:47,33.39238,-124.31624,076.7 100.0,076.7,100.0,473.000,476.923,,6.0425,,6.0392,,6.0409,34.2213,,34.2271,34.2175,,34.2195,34.2233,0.4545,,0.4756,0.4946,0.4492,,0.4751,0.5009,0.4978,19.767,20.9523,32.6918,19.535,22.4336,32.8331,32.7625,0.0329,,,, ,, , ,26.9372,,26.9346,,0.7262,83.3971,,,,1.8474E+00,,1.0000E-12,,6.0010,5.9977,0.9972,117.434,6.552,6.474,,,,,,,,,,,,
CalCOFI,2101RL,066,,2101_066u,01-Feb-2021 10:41:48,01-Feb-2021 02:41:48,33.39238,-124.31624,076.7 100.0,076.7,100.0,472.000,475.914,,6.0384,,6.0310,,6.0347,34.2195,,34.2253,34.2141,,34.2161,34.2207,0.4629,,0.4844,0.5034,0.4462,,0.4719,0.4977,0.5006,20.129,21.3312,33.0014,19.405,22.8362,32.7201,32.8608,0.0325,,,, ,, , ,26.9363,,26.9330,,0.7264,83.3938,,,,1.8474E+00,,1.0000E-12,,5.9970,5.9896,0.9972,117.501,6.671,6.430,,,,,,,,,,,,
CalCOFI,2101RL,066,,2101_066u,01-Feb-2021 10:41:50,01-Feb-2021 02:41:50,33.39239,-124.31624,076.7 100.0,076.7,100.0,471.000,474.905,,6.0156,,6.0296,,6.0226,34.2103,,34.2161,34.2136,,34.2156,34.2159,0.4861,,0.5087,0.5279,0.4605,,0.4871,0.5130,0.5205,21.140,22.3896,33.8661,20.025,23.9604,33.2586,33.5624,0.0325,,,, ,, , ,26.9319,,26.9327,,0.7250,83.4228,,,,1.8474E+00,,1.0000E-12,,5.9744,5.9883,0.9972,117.874,7.002,6.635,,,,,,,,,,,,
CalCOFI,2101RL,066,,2101_066u,01-Feb-2021 10:41:52,01-Feb-2021 02:41:52,33.39240,-124.31624,076.7 100.0,076.7,100.0,470.000,473.895,,5.9811,,5.9813,,5.9812,34.1997,,34.2055,34.1973,,34.1993,34.2024,0.5077,,0.5313,0.5507,0.4974,,0.5263,0.5525,0.5516,22.081,23.3746,34.6709,21.632,25.0068,34.6543,34.6626,0.0321,,,, ,, , ,26.9278,,26.9259,,0.7252,83.4178,,,,1.8474E+00,,1.0000E-12,,5.9401,5.9403,0.9972,118.209,7.307,7.158,,,,,,,,,,,,
CalCOFI,2101RL,066,,2101_066u,01-Feb-2021 10:41:53,01-Feb-2021 02:41:53,33.39242,-124.31622,076.7 100.0,076.7,100.0,469.000,472.886,,5.9821,,5.9929,,5.9875,34.1976,,34.2034,34.1996,,34.2016,34.2025,0.5157,,0.5396,0.5591,0.4980,,0.5269,0.5531,0.5561,22.428,23.7378,34.9677,21.658,25.3927,34.6769,34.8223,0.0327,,,, ,, , ,26.9260,,26.9262,,0.7258,83.4056,,,,1.8474E+00,,1.0000E-12,,5.9412,5.9520,0.9972,118.362,7.422,7.169,,,,,,,,,,,,
CalCOFI,2101RL,066,,2101_066u,01-Feb-2021 10:41:54,01-Feb-2021 02:41:54,33.39242,-124.31622,076.7 100.0,076.7,100.0,468.000,471.876,,5.9778,,5.9757,,5.9768,34.1944,,34.2002,34.1912,,34.1932,34.1967,0.5214,,0.5456,0.5651,0.5156,,0.5456,0.5720,0.5686,22.674,23.9953,35.1781,22.423,25.6663,35.3413,35.2597,0.0338,,,, ,, , ,26.9240,,26.9217,,0.7258,83.4059,,,,1.8474E+00,,1.0000E-12,,5.9370,5.9349,0.9972,118.532,7.503,7.419,,,,,,,,,,,,
CalCOFI,2101RL,066,,2101_066u,01-Feb-2021 10:41:54,01-Feb-2021 02:41:54,33.39242,-124.31622,076.7 100.0,076.7,100.0,467.000,470.867,,5.9717,,5.9662,,5.9690,34.1919,,34.1977,34.1873,,34.1893,34.1935,0.5255,,0.5499,0.5695,0.5196,,0.5499,0.5762,0.5729,22.855,24.1848,35.3329,22.597,25.8675,35.4925,35.4127,0.0338,,,, ,, , ,26.9228,,26.9198,,0.7258,83.4059,,,,1.8474E+00,,1.0000E-12,,5.9310,5.9255,0.9972,118.625,7.561,7.474,,,,,,,,,,,,
CalCOFI,2101RL,066,,2101_066u,01-Feb-2021 10:41:55,01-Feb-2021 02:41:55,33.39242,-124.31622,076.7 100.0,076.7,100.0,466.000,469.857,,5.9718,,5.9728,,5.9723,34.1918,,34.1976,34.1865,,34.1885,34.1931,0.5279,,0.5524,0.5720,0.5159,,0.5459,0.5723,0.5722,22.956,24.2905,35.4193,22.436,25.9798,35.3526,35.3860,0.0326,,,, ,, , ,26.9227,,26.9184,,0.7258,83.4059,,,,1.8474E+00,,1.0000E-12,,5.9312,5.9322,0.9972,118.620,7.595,7.422,,,,,,,,,,,,
CalCOFI,2101RL,066,,2101_066u,01-Feb-2021 10:41:56,01-Feb-2021 02:41:56,33.39242,-124.31621,076.7 100.0,076.7,100.0,465.000,468.848,,5.9737,,5.9813,,5.9775,34.1899,,34.1957,34.1861,,34.1881,34.1919,0.5305,,0.5551,0.5747,0.5197,,0.5500,0.5763,0.5755,23.072,24.4120,35.5185,22.600,26.1088,35.4951,35.5068,0.0330,,,, ,, , ,26.9209,,26.9170,,0.7258,83.4059,,,,1.8474E+00,,1.0000E-12,,5.9332,5.9407,0.9972,118.777,7.633,7.478,,,,,,,,,,,,